EW0220 Weather Reports


Display with metric or nautical units.
time (UTC)temp
F
wind
direction
speed
MPH
gust
MPH
rain 1hr
in
rain 24hr
in
rain mn
in
humidity
%
barometer
mb
20260504081519 60 228 5.0 11.0 0.00 0.00 0.00 61 1012.0
20260504044559 59 202 4.0 8.0 0.00 0.00 0.00 58 1013.4
20260504043055 59 172 3.0 8.0 0.00 0.00 0.00 58 1013.5
20260504041549 59 217 2.0 6.0 0.00 0.00 0.00 59 1013.6
20260504040103 59 182 3.0 8.0 0.00 0.00 0.00 59 1013.8
20260504034610 57 195 3.0 6.0 0.00 0.00 0.00 62 1013.9
20260504033046 57 189 2.0 6.0 0.00 0.00 0.00 61 1014.0
20260504031546 57 187 2.0 5.0 0.00 0.00 0.00 61 1014.2
20260504024550 58 170 1.0 2.0 0.00 0.00 0.00 59 1014.2
20260504023045 58 168 0.0 1.0 0.00 0.00 0.00 57 1014.0
20260504021549 59 151 1.0 3.0 0.00 0.00 0.00 57 1013.9
20260504020043 60 168 1.0 3.0 0.00 0.00 0.00 54 1013.9
20260504014543 60 187 1.0 4.0 0.00 0.00 0.00 53 1013.9
20260504013050 61 172 0.0 1.0 0.00 0.00 0.00 52 1013.7
20260504011542 62 184 1.0 3.0 0.00 0.00 0.00 50 1013.7
20260504010041 63 191 1.0 5.0 0.00 0.00 0.00 47 1013.7
20260504004540 64 191 3.0 7.0 0.00 0.00 0.00 44 1013.7
20260504003038 65 205 2.0 6.0 0.00 0.00 0.00 43 1013.9
20260504001538 66 178 4.0 9.0 0.00 0.00 0.00 42 1014.0
20260504000035 67 207 4.0 9.0 0.00 0.00 0.00 44 1014.2
20260503234534 68 207 4.0 9.0 0.00 0.00 0.00 41 1014.2
20260503233036 69 181 4.0 9.0 0.00 0.00 0.00 38 1014.4
20260503231533 70 210 4.0 9.0 0.00 0.00 0.00 39 1014.6
20260503230029 70 224 6.0 10.0 0.00 0.00 0.00 38 1014.7
20260503224527 70 204 7.0 12.0 0.00 0.00 0.00 38 1014.9
20260503223026 70 216 4.0 10.0 0.00 0.00 0.00 40 1014.9
20260503221526 70 194 6.0 11.0 0.00 0.00 0.00 38 1014.9
20260503220022 70 217 5.0 10.0 0.00 0.00 0.00 38 1015.2
20260503214519 70 177 4.0 12.0 0.00 0.00 0.00 43 1015.4
20260503213017 70 221 5.0 14.0 0.00 0.00 0.00 40 1015.7
20260503211515 70 224 6.0 13.0 0.00 0.00 0.00 38 1016.1
20260503210015 69 195 5.0 12.0 0.00 0.00 0.00 41 1016.3
20260503204510 69 203 6.0 12.0 0.00 0.00 0.00 41 1016.6
20260503203007 69 222 6.0 12.0 0.00 0.00 0.00 41 1017.0
20260503201503 69 188 6.0 12.0 0.00 0.00 0.00 43 1017.4
20260503200100 69 255 6.0 10.0 0.00 0.00 0.00 39 1017.8
20260503194559 68 239 4.0 13.0 0.00 0.00 0.00 39 1018.2
20260503193109 68 210 5.0 12.0 0.00 0.00 0.00 42 1018.5
20260503191553 68 203 5.0 11.0 0.00 0.00 0.00 43 1018.6
20260503190106 67 211 6.0 13.0 0.00 0.00 0.00 45 1018.7
20260503184548 67 217 2.0 12.0 0.00 0.00 0.00 47 1019.0
20260503183057 66 188 4.0 14.0 0.00 0.00 0.00 43 1019.2
20260503181542 66 213 6.0 13.0 0.00 0.00 0.00 42 1019.6
20260503180051 66 241 4.0 13.0 0.00 0.00 0.00 48 1019.7
20260503174539 65 268 7.0 14.0 0.00 0.00 0.00 47 1019.9
20260503173053 65 212 6.0 11.0 0.00 0.00 0.00 47 1020.3
20260503171542 64 186 5.0 11.0 0.00 0.00 0.00 50 1020.4